Location: Observatoire
(46.1952°N, 5.3391°E)
Time: 07:12:52
(UTC+02:00)

AO-73 - Visible Passes

Search period start: 16 April 2024 00:00
Search period end: 26 April 2024 00:00
Orbit: 561 x 629 km, 97.7° (Epoch: 15 April)

Date Brightness Start Highest point End Pass type
(mag) Time Alt. Az. Time Alt. Az. Time Alt. Az.
16 Apr ? 04:46:53 10° NNE 04:51:13 70° ESE 04:53:36 26° S visible
17 Apr ? 04:56:26 10° NNE 05:00:48 88° ESE 05:03:24 24° SSW visible
18 Apr ? 03:32:34 10° ENE 03:34:14 12° E 03:35:56 10° ESE visible
18 Apr ? 05:06:00 10° N 05:10:21 74° WNW 05:13:11 21° SSW visible
19 Apr ? 03:41:21 10° NE 03:43:53 15° E 03:46:18 10° SE visible
19 Apr ? 05:15:35 10° N 05:19:52 59° WNW 05:22:56 19° SSW visible
20 Apr ? 03:50:25 10° NE 03:53:30 19° E 03:56:01 12° SE visible
20 Apr ? 05:25:10 10° N 05:29:21 47° WNW 05:32:40 15° SW visible
21 Apr ? 03:59:34 10° NE 04:03:04 23° E 04:05:43 14° SE visible
21 Apr ? 05:34:45 10° N 05:38:47 38° WNW 05:42:21 13° SW visible
22 Apr ? 04:08:48 10° NE 04:12:36 28° E 04:15:23 15° SSE visible
22 Apr ? 05:44:20 10° N 05:48:12 31° WNW 05:52:02 10° SW visible
23 Apr ? 04:18:04 10° NNE 04:22:06 35° E 04:25:02 16° SSE visible
23 Apr ? 05:53:57 10° N 05:57:33 26° WNW 06:01:09 10° WSW visible
24 Apr ? 04:27:21 10° NNE 04:31:33 44° E 04:34:39 17° SSE visible
25 Apr ? 04:36:39 10° NNE 04:40:58 55° E 04:44:14 17° S visible
